Location: Charleville
(26.4021°S, 146.2454°E)
Time: 22:57:37
(UTC+10:00)

Tiangong - Visible Passes

Search period start: 17 July 2025 00:00
Search period end: 27 July 2025 00:00
Orbit: 391 x 402 km, 41.5° (Epoch: 17 July)

Date Brightness Start Highest point End Pass type
(mag) Time Alt. Az. Time Alt. Az. Time Alt. Az.
20 Jul -1.1 06:24:39 10° NW 06:27:50 50° NE 06:31:03 10° ESE visible
21 Jul 0.2 05:29:39 11° NNW 05:32:11 25° NE 05:34:56 10° E visible
22 Jul 1.5 04:37:54 11° ENE 04:37:54 11° ENE 04:38:06 10° ENE visible
22 Jul -1.9 06:10:27 12° WNW 06:13:23 55° SSW 06:16:38 10° SE visible
23 Jul -1.2 05:18:19 49° ESE 05:18:19 49° ESE 05:20:54 10° ESE visible
24 Jul -0.8 05:58:25 23° SW 05:58:59 24° SSW 06:01:46 10° SSE visible
25 Jul 0.8 05:05:45 13° SE 05:05:45 13° SE 05:06:14 10° SE visible
26 Jul 0.3 05:45:23 13° S 05:45:23 13° S 05:46:25 10° SSE visible
